• In Lithuania
  • List of Countries
  • For 7 days
  • Water Temperature
  • Satellite Maps
  • Weather Map
  • Weather Widgets
  • user-avatar
    Login

    Hourly Weather Solden

    Today, 23 August, Wednesday

    Time Temperature Precipitation Wind Pressure Humidity
    00:00 +6°C° 0 mm 1 mps 585 mmHg 89%
    01:00 +5°C° 0 mm 1 mps 584 mmHg 88%
    02:00 +5°C° 0 mm 1 mps 584 mmHg 86%
    03:00 +5°C° 0 mm 1 mps 584 mmHg 84%
    04:00 +5°C° 0 mm 1 mps 584 mmHg 81%
    05:00 +6°C° 0 mm 1 mps 585 mmHg 77%
    06:00 +7°C° 0 mm 1 mps 585 mmHg 73%
    07:00 +9°C° 0 mm 1 mps 586 mmHg 62%
    08:00 +11°C° 0 mm 1 mps 587 mmHg 54%
    09:00 +14°C° 0 mm 2 mps 588 mmHg 46%
    10:00 +16°C° 0 mm 2 mps 590 mmHg 39%
    11:00 +16°C° 0.1 mm 2 mps 590 mmHg 39%
    12:00 +17°C° 0.1 mm 2 mps 590 mmHg 39%
    13:00 +17°C° 0.1 mm 2 mps 590 mmHg 39%
    14:00 +17°C° 0.2 mm 2 mps 590 mmHg 41%
    15:00 +17°C° 0.2 mm 2 mps 590 mmHg 42%
    16:00 +17°C° 0.2 mm 2 mps 589 mmHg 44%
    17:00 +15°C° 0.1 mm 2 mps 589 mmHg 53%
    18:00 +12°C° 0.1 mm 2 mps 588 mmHg 61%
    19:00 +10°C° 0.1 mm 1 mps 587 mmHg 70%
    20:00 +9°C° 0 mm 1 mps 587 mmHg 73%
    21:00 +8°C° 0 mm 1 mps 586 mmHg 76%
    22:00 +7°C° 0 mm 1 mps 586 mmHg 79%
    23:00 +7°C° 0 mm 1 mps 586 mmHg 78%

    Tomorrow, 24 August, Thursday

    Time Temperature Precipitation Wind Pressure Humidity
    00:00 +6°C° 0 mm 1 mps 586 mmHg 76%
    01:00 +6°C° 0 mm 1 mps 586 mmHg 75%
    02:00 +6°C° 0 mm 1 mps 586 mmHg 74%
    03:00 +6°C° 0 mm 1 mps 585 mmHg 72%
    04:00 +6°C° 0 mm 1 mps 585 mmHg 71%
    05:00 +7°C° 0 mm 1 mps 586 mmHg 68%
    06:00 +9°C° 0 mm 1 mps 587 mmHg 65%
    07:00 +10°C° 0 mm 1 mps 588 mmHg 62%
    08:00 +13°C° 0 mm 1 mps 589 mmHg 53%
    09:00 +15°C° 0 mm 1 mps 590 mmHg 45%
    10:00 +19°C° 0 mm 1 mps 591 mmHg 37%
    11:00 +19°C° 0 mm 1 mps 592 mmHg 36%
    12:00 +20°C° 0 mm 1 mps 592 mmHg 35%
    13:00 +20°C° 0 mm 2 mps 592 mmHg 34%
    14:00 +19°C° 0.3 mm 2 mps 591 mmHg 39%
    15:00 +18°C° 0.3 mm 2 mps 591 mmHg 43%
    16:00 +17°C° 0.3 mm 2 mps 590 mmHg 48%
    17:00 +15°C° 0.6 mm 1 mps 590 mmHg 58%
    18:00 +13°C° 0.6 mm 1 mps 589 mmHg 68%
    19:00 +11°C° 0.6 mm 1 mps 588 mmHg 78%
    20:00 +10°C° 0.1 mm 1 mps 588 mmHg 80%
    21:00 +10°C° 0.1 mm 1 mps 588 mmHg 82%
    22:00 +9°C° 0.1 mm 1 mps 588 mmHg 85%
    23:00 +8°C° 0 mm 1 mps 588 mmHg 85%

    Day after tomorrow, 25 August, Friday

    Time Temperature Precipitation Wind Pressure Humidity
    00:00 +8°C° 0 mm 1 mps 587 mmHg 86%
    01:00 +8°C° 0 mm 1 mps 587 mmHg 87%
    02:00 +7°C° 0 mm 1 mps 587 mmHg 86%
    03:00 +7°C° 0 mm 1 mps 587 mmHg 86%
    04:00 +7°C° 0 mm 1 mps 586 mmHg 86%
    05:00 +8°C° 0 mm 1 mps 587 mmHg 82%
    06:00 +9°C° 0 mm 1 mps 588 mmHg 78%
    07:00 +10°C° 0 mm 1 mps 588 mmHg 75%
    08:00 +13°C° 0 mm 1 mps 589 mmHg 65%
    09:00 +15°C° 0 mm 1 mps 591 mmHg 56%
    10:00 +18°C° 0 mm 1 mps 592 mmHg 47%
    11:00 +19°C° 0 mm 1 mps 592 mmHg 45%
    12:00 +20°C° 0 mm 1 mps 592 mmHg 43%
    13:00 +21°C° 0 mm 1 mps 592 mmHg 40%
    14:00 +20°C° 0.2 mm 1 mps 592 mmHg 43%
    15:00 +20°C° 0.2 mm 1 mps 591 mmHg 46%
    16:00 +19°C° 0.2 mm 1 mps 591 mmHg 49%
    17:00 +16°C° 0.5 mm 1 mps 590 mmHg 60%
    18:00 +14°C° 0.5 mm 1 mps 589 mmHg 71%
    19:00 +12°C° 0.5 mm 1 mps 588 mmHg 81%
    20:00 +12°C° 0.5 mm 1 mps 588 mmHg 83%
    21:00 +11°C° 0.5 mm 1 mps 588 mmHg 84%
    22:00 +11°C° 0.5 mm 1 mps 588 mmHg 85%
    23:00 +10°C° 0.1 mm 1 mps 588 mmHg 85%

    26 August, Saturday

    Time Temperature Precipitation Wind Pressure Humidity
    00:00 +10°C° 0.1 mm 1 mps 588 mmHg 85%
    01:00 +10°C° 0.1 mm 1 mps 588 mmHg 85%
    02:00 +9°C° 0 mm 1 mps 587 mmHg 85%
    03:00 +9°C° 0 mm 1 mps 587 mmHg 84%
    04:00 +9°C° 0 mm 1 mps 587 mmHg 84%
    05:00 +10°C° 0.1 mm 1 mps 587 mmHg 81%
    06:00 +11°C° 0.1 mm 1 mps 588 mmHg 77%
    07:00 +12°C° 0.1 mm 1 mps 589 mmHg 74%
    08:00 +14°C° 0.1 mm 1 mps 590 mmHg 64%
    09:00 +18°C° 0.1 mm 1 mps 591 mmHg 55%
    10:00 +20°C° 0.1 mm 1 mps 592 mmHg 46%
    11:00 +20°C° 0.3 mm 1 mps 592 mmHg 44%
    12:00 +21°C° 0.3 mm 1 mps 592 mmHg 42%
    13:00 +21°C° 0.3 mm 1 mps 592 mmHg 41%
    14:00 +21°C° 0.4 mm 1 mps 591 mmHg 42%
    15:00 +20°C° 0.4 mm 1 mps 591 mmHg 44%
    16:00 +20°C° 0.4 mm 1 mps 590 mmHg 46%
    17:00 +18°C° 0.4 mm 1 mps 590 mmHg 56%
    18:00 +15°C° 0.4 mm 1 mps 589 mmHg 66%
    19:00 +12°C° 0.4 mm 0 mps 588 mmHg 76%
    20:00 +12°C° 0.3 mm 1 mps 588 mmHg 77%
    21:00 +12°C° 0.3 mm 1 mps 588 mmHg 77%
    22:00 +11°C° 0.3 mm 1 mps 588 mmHg 78%
    23:00 +11°C° 0 mm 1 mps 587 mmHg 79%

    27 August, Sunday

    Time Temperature Precipitation Wind Pressure Humidity
    00:00 +10°C° 0 mm 1 mps 587 mmHg 79%
    01:00 +10°C° 0 mm 1 mps 587 mmHg 80%
    02:00 +9°C° 0 mm 1 mps 586 mmHg 80%
    03:00 +9°C° 0 mm 1 mps 586 mmHg 80%
    04:00 +8°C° 0 mm 1 mps 586 mmHg 79%
    05:00 +9°C° 0 mm 1 mps 587 mmHg 76%
    06:00 +11°C° 0 mm 1 mps 587 mmHg 73%
    07:00 +12°C° 0 mm 1 mps 588 mmHg 69%
    08:00 +14°C° 0.1 mm 1 mps 589 mmHg 60%
    09:00 +18°C° 0.1 mm 1 mps 590 mmHg 51%
    10:00 +20°C° 0.1 mm 1 mps 591 mmHg 43%
    11:00 +21°C° 0.3 mm 1 mps 591 mmHg 41%
    12:00 +21°C° 0.3 mm 1 mps 591 mmHg 39%
    13:00 +22°C° 0.3 mm 1 mps 591 mmHg 37%
    14:00 +22°C° 0.5 mm 1 mps 591 mmHg 40%
    15:00 +21°C° 0.5 mm 1 mps 590 mmHg 43%
    16:00 +20°C° 0.5 mm 1 mps 590 mmHg 46%
    17:00 +18°C° 0.7 mm 1 mps 589 mmHg 55%
    18:00 +15°C° 0.7 mm 1 mps 588 mmHg 64%
    19:00 +12°C° 0.7 mm 0 mps 587 mmHg 73%
    20:00 +11°C° 0.5 mm 0 mps 587 mmHg 74%
    21:00 +11°C° 0.5 mm 0 mps 587 mmHg 76%
    22:00 +11°C° 0.5 mm 1 mps 587 mmHg 77%
    23:00 +11°C° 0.1 mm 1 mps 587 mmHg 78%

    28 August, Monday

    Time Temperature Precipitation Wind Pressure Humidity
    00:00 +10°C° 0.1 mm 1 mps 586 mmHg 78%
    01:00 +9°C° 0.1 mm 1 mps 586 mmHg 79%
    02:00 +9°C° 0.1 mm 1 mps 586 mmHg 79%
    03:00 +9°C° 0.1 mm 1 mps 586 mmHg 79%
    04:00 +9°C° 0.1 mm 1 mps 586 mmHg 78%
    05:00 +10°C° 0 mm 1 mps 586 mmHg 77%
    06:00 +11°C° 0 mm 1 mps 587 mmHg 75%
    07:00 +12°C° 0 mm 1 mps 588 mmHg 73%
    08:00 +14°C° 0 mm 1 mps 589 mmHg 64%
    09:00 +16°C° 0 mm 1 mps 590 mmHg 55%
    10:00 +19°C° 0 mm 2 mps 591 mmHg 47%
    11:00 +21°C° 0.3 mm 1 mps 591 mmHg 44%
    12:00 +22°C° 0.3 mm 1 mps 591 mmHg 42%
    13:00 +23°C° 0.3 mm 1 mps 592 mmHg 39%
    14:00 +22°C° 0.5 mm 1 mps 591 mmHg 41%
    15:00 +20°C° 0.5 mm 2 mps 591 mmHg 43%
    16:00 +20°C° 0.5 mm 2 mps 591 mmHg 45%
    17:00 +18°C° 0.4 mm 1 mps 590 mmHg 54%
    18:00 +15°C° 0.4 mm 1 mps 589 mmHg 64%
    19:00 +13°C° 0.4 mm 1 mps 588 mmHg 73%
    20:00 +12°C° 0.1 mm 1 mps 588 mmHg 76%
    21:00 +11°C° 0.1 mm 1 mps 588 mmHg 78%
    22:00 +10°C° 0.1 mm 1 mps 587 mmHg 81%
    23:00 +10°C° 0 mm 1 mps 587 mmHg 82%
    Show more